Netzbetreibername:;Getreidem�hle Zwiefalten e.G.;;
Netz- oder Umspannebene:;Netzgebiet;;
Lastgangtyp:;Summenlast der Fahrplanprognosen f�r Lastprofilkunden;;
gesetzliche Grundlage:;� 23c Abs. 3 Nr. 4 EnWG;;
Einheit:;kW;;
Betrachtungszeitraum:;01.01.2023;31.12.2023;
;;;
Datum;von;bis;Wert
01.01.2023;00:00;00:15;317
01.01.2023;00:15;00:30;291
01.01.2023;00:30;00:45;266
01.01.2023;00:45;01:00;242
01.01.2023;01:00;01:15;219
01.01.2023;01:15;01:30;198
01.01.2023;01:30;01:45;179
01.01.2023;01:45;02:00;166
01.01.2023;02:00;02:15;157
01.01.2023;02:15;02:30;150
01.01.2023;02:30;02:45;149
01.01.2023;02:45;03:00;150
01.01.2023;03:00;03:15;154
01.01.2023;03:15;03:30;157
01.01.2023;03:30;03:45;162
01.01.2023;03:45;04:00;166
01.01.2023;04:00;04:15;171
01.01.2023;04:15;04:30;176
01.01.2023;04:30;04:45;183
01.01.2023;04:45;05:00;184
01.01.2023;05:00;05:15;186
01.01.2023;05:15;05:30;187
01.01.2023;05:30;05:45;190
01.01.2023;05:45;06:00;172
01.01.2023;06:00;06:15;123
01.01.2023;06:15;06:30;123
01.01.2023;06:30;06:45;125
01.01.2023;06:45;07:00;129
01.01.2023;07:00;07:15;133
01.01.2023;07:15;07:30;140
01.01.2023;07:30;07:45;153
01.01.2023;07:45;08:00;173
01.01.2023;08:00;08:15;202
01.01.2023;08:15;08:30;237
01.01.2023;08:30;08:45;276
01.01.2023;08:45;09:00;315
01.01.2023;09:00;09:15;351
01.01.2023;09:15;09:30;385
01.01.2023;09:30;09:45;415
01.01.2023;09:45;10:00;443
01.01.2023;10:00;10:15;467
01.01.2023;10:15;10:30;490
01.01.2023;10:30;10:45;511
01.01.2023;10:45;11:00;533
01.01.2023;11:00;11:15;555
01.01.2023;11:15;11:30;576
01.01.2023;11:30;11:45;593
01.01.2023;11:45;12:00;604
01.01.2023;12:00;12:15;608
01.01.2023;12:15;12:30;604
01.01.2023;12:30;12:45;592
01.01.2023;12:45;13:00;572
01.01.2023;13:00;13:15;546
01.01.2023;13:15;13:30;516
01.01.2023;13:30;13:45;484
01.01.2023;13:45;14:00;454
01.01.2023;14:00;14:15;427
01.01.2023;14:15;14:30;404
01.01.2023;14:30;14:45;384
01.01.2023;14:45;15:00;368
01.01.2023;15:00;15:15;355
01.01.2023;15:15;15:30;344
01.01.2023;15:30;15:45;334
01.01.2023;15:45;16:00;324
01.01.2023;16:00;16:15;315
01.01.2023;16:15;16:30;308
01.01.2023;16:30;16:45;307
01.01.2023;16:45;17:00;313
01.01.2023;17:00;17:15;330
01.01.2023;17:15;17:30;353
01.01.2023;17:30;17:45;380
01.01.2023;17:45;18:00;406
01.01.2023;18:00;18:15;429
01.01.2023;18:15;18:30;448
01.01.2023;18:30;18:45;465
01.01.2023;18:45;19:00;482
01.01.2023;19:00;19:15;498
01.01.2023;19:15;19:30;512
01.01.2023;19:30;19:45;520
01.01.2023;19:45;20:00;517
01.01.2023;20:00;20:15;502
01.01.2023;20:15;20:30;479
01.01.2023;20:30;20:45;453
01.01.2023;20:45;21:00;429
01.01.2023;21:00;21:15;412
01.01.2023;21:15;21:30;400
01.01.2023;21:30;21:45;400
01.01.2023;21:45;22:00;458
01.01.2023;22:00;22:15;460
01.01.2023;22:15;22:30;453
01.01.2023;22:30;22:45;430
01.01.2023;22:45;23:00;405
01.01.2023;23:00;23:15;380
01.01.2023;23:15;23:30;355
01.01.2023;23:30;23:45;313
02.01.2023;23:45;00:00;284
02.01.2023;00:00;00:15;279
02.01.2023;00:15;00:30;251
02.01.2023;00:30;00:45;226
02.01.2023;00:45;01:00;203
02.01.2023;01:00;01:15;186
02.01.2023;01:15;01:30;171
02.01.2023;01:30;01:45;159
02.01.2023;01:45;02:00;153
02.01.2023;02:00;02:15;148
02.01.2023;02:15;02:30;149,0312598
02.01.2023;02:30;02:45;150,7837481
02.01.2023;02:45;03:00;152,3316975
02.01.2023;03:00;03:15;157,501895
02.01.2023;03:15;03:30;163
02.01.2023;03:30;03:45;168
02.01.2023;03:45;04:00;183
02.01.2023;04:00;04:15;186
02.01.2023;04:15;04:30;190
02.01.2023;04:30;04:45;194
02.01.2023;04:45;05:00;197
02.01.2023;05:00;05:15;202
02.01.2023;05:15;05:30;210
02.01.2023;05:30;05:45;224
02.01.2023;05:45;06:00;228
02.01.2023;06:00;06:15;207
02.01.2023;06:15;06:30;247
02.01.2023;06:30;06:45;291
02.01.2023;06:45;07:00;330
02.01.2023;07:00;07:15;360
02.01.2023;07:15;07:30;381
02.01.2023;07:30;07:45;395
02.01.2023;07:45;08:00;404
02.01.2023;08:00;08:15;410
02.01.2023;08:15;08:30;412
02.01.2023;08:30;08:45;412
02.01.2023;08:45;09:00;408
02.01.2023;09:00;09:15;401
02.01.2023;09:15;09:30;393
02.01.2023;09:30;09:45;385
02.01.2023;09:45;10:00;378
02.01.2023;10:00;10:15;373
02.01.2023;10:15;10:30;370
02.01.2023;10:30;10:45;369
02.01.2023;10:45;11:00;369
02.01.2023;11:00;11:15;371
02.01.2023;11:15;11:30;374
02.01.2023;11:30;11:45;379
02.01.2023;11:45;12:00;386
02.01.2023;12:00;12:15;396
02.01.2023;12:15;12:30;406
02.01.2023;12:30;12:45;414
02.01.2023;12:45;13:00;417
02.01.2023;13:00;13:15;414
02.01.2023;13:15;13:30;405
02.01.2023;13:30;13:45;393
02.01.2023;13:45;14:00;381
02.01.2023;14:00;14:15;370
02.01.2023;14:15;14:30;360
02.01.2023;14:30;14:45;352
02.01.2023;14:45;15:00;344
02.01.2023;15:00;15:15;337
02.01.2023;15:15;15:30;332
02.01.2023;15:30;15:45;327
02.01.2023;15:45;16:00;325
02.01.2023;16:00;16:15;325
02.01.2023;16:15;16:30;328
02.01.2023;16:30;16:45;335
02.01.2023;16:45;17:00;347
02.01.2023;17:00;17:15;364
02.01.2023;17:15;17:30;386
02.01.2023;17:30;17:45;411
02.01.2023;17:45;18:00;438
02.01.2023;18:00;18:15;464
02.01.2023;18:15;18:30;489
02.01.2023;18:30;18:45;511
02.01.2023;18:45;19:00;530
02.01.2023;19:00;19:15;543
02.01.2023;19:15;19:30;551
02.01.2023;19:30;19:45;551
02.01.2023;19:45;20:00;543
02.01.2023;20:00;20:15;526
02.01.2023;20:15;20:30;503
02.01.2023;20:30;20:45;478
02.01.2023;20:45;21:00;454
02.01.2023;21:00;21:15;435
02.01.2023;21:15;21:30;419
02.01.2023;21:30;21:45;415
02.01.2023;21:45;22:00;481
02.01.2023;22:00;22:15;489
02.01.2023;22:15;22:30;472
02.01.2023;22:30;22:45;447
02.01.2023;22:45;23:00;422
02.01.2023;23:00;23:15;396
02.01.2023;23:15;23:30;371
02.01.2023;23:30;23:45;345
03.01.2023;23:45;00:00;320
03.01.2023;00:00;00:15;324
03.01.2023;00:15;00:30;301
03.01.2023;00:30;00:45;281
03.01.2023;00:45;01:00;263
03.01.2023;01:00;01:15;252
03.01.2023;01:15;01:30;245
03.01.2023;01:30;01:45;237
03.01.2023;01:45;02:00;231
03.01.2023;02:00;02:15;215
03.01.2023;02:15;02:30;209
03.01.2023;02:30;02:45;203
03.01.2023;02:45;03:00;197
03.01.2023;03:00;03:15;196
03.01.2023;03:15;03:30;196
03.01.2023;03:30;03:45;195
03.01.2023;03:45;04:00;196
03.01.2023;04:00;04:15;197
03.01.2023;04:15;04:30;201
03.01.2023;04:30;04:45;205
03.01.2023;04:45;05:00;210
03.01.2023;05:00;05:15;215
03.01.2023;05:15;05:30;224
03.01.2023;05:30;05:45;239
03.01.2023;05:45;06:00;244
03.01.2023;06:00;06:15;207
03.01.2023;06:15;06:30;247
03.01.2023;06:30;06:45;291
03.01.2023;06:45;07:00;330
03.01.2023;07:00;07:15;360
03.01.2023;07:15;07:30;381
03.01.2023;07:30;07:45;396
03.01.2023;07:45;08:00;405
03.01.2023;08:00;08:15;410
03.01.2023;08:15;08:30;413
03.01.2023;08:30;08:45;412
03.01.2023;08:45;09:00;409
03.01.2023;09:00;09:15;402
03.01.2023;09:15;09:30;394
03.01.2023;09:30;09:45;385
03.01.2023;09:45;10:00;378
03.01.2023;10:00;10:15;373
03.01.2023;10:15;10:30;371
03.01.2023;10:30;10:45;369
03.01.2023;10:45;11:00;370
03.01.2023;11:00;11:15;372
03.01.2023;11:15;11:30;374
03.01.2023;11:30;11:45;379
03.01.2023;11:45;12:00;387
03.01.2023;12:00;12:15;397
03.01.2023;12:15;12:30;407
03.01.2023;12:30;12:45;415
03.01.2023;12:45;13:00;418
03.01.2023;13:00;13:15;414
03.01.2023;13:15;13:30;406
03.01.2023;13:30;13:45;394
03.01.2023;13:45;14:00;382
03.01.2023;14:00;14:15;380
03.01.2023;14:15;14:30;368
03.01.2023;14:30;14:45;352
03.01.2023;14:45;15:00;345
03.01.2023;15:00;15:15;338
03.01.2023;15:15;15:30;332
03.01.2023;15:30;15:45;328
03.01.2023;15:45;16:00;325
03.01.2023;16:00;16:15;325
03.01.2023;16:15;16:30;328
03.01.2023;16:30;16:45;335
03.01.2023;16:45;17:00;347
03.01.2023;17:00;17:15;365
03.01.2023;17:15;17:30;387
03.01.2023;17:30;17:45;412
03.01.2023;17:45;18:00;438
03.01.2023;18:00;18:15;465
03.01.2023;18:15;18:30;489
03.01.2023;18:30;18:45;512
03.01.2023;18:45;19:00;530
03.01.2023;19:00;19:15;544
03.01.2023;19:15;19:30;552
03.01.2023;19:30;19:45;552
03.01.2023;19:45;20:00;544
03.01.2023;20:00;20:15;527
03.01.2023;20:15;20:30;504
03.01.2023;20:30;20:45;478
03.01.2023;20:45;21:00;455
03.01.2023;21:00;21:15;435
03.01.2023;21:15;21:30;419
03.01.2023;21:30;21:45;416
03.01.2023;21:45;22:00;513
03.01.2023;22:00;22:15;517
03.01.2023;22:15;22:30;515
03.01.2023;22:30;22:45;488
03.01.2023;22:45;23:00;459
03.01.2023;23:00;23:15;429
03.01.2023;23:15;23:30;402
03.01.2023;23:30;23:45;375
04.01.2023;23:45;00:00;348
04.01.2023;00:00;00:15;324
04.01.2023;00:15;00:30;301
04.01.2023;00:30;00:45;281
04.01.2023;00:45;01:00;264
04.01.2023;01:00;01:15;252
04.01.2023;01:15;01:30;245
04.01.2023;01:30;01:45;237
04.01.2023;01:45;02:00;231
04.01.2023;02:00;02:15;215
04.01.2023;02:15;02:30;209
04.01.2023;02:30;02:45;203
04.01.2023;02:45;03:00;197
04.01.2023;03:00;03:15;197
04.01.2023;03:15;03:30;196
04.01.2023;03:30;03:45;195
04.01.2023;03:45;04:00;196
04.01.2023;04:00;04:15;197
04.01.2023;04:15;04:30;201
04.01.2023;04:30;04:45;205
04.01.2023;04:45;05:00;210
04.01.2023;05:00;05:15;215
04.01.2023;05:15;05:30;224
04.01.2023;05:30;05:45;239
04.01.2023;05:45;06:00;244
04.01.2023;06:00;06:15;207
04.01.2023;06:15;06:30;248
04.01.2023;06:30;06:45;292
04.01.2023;06:45;07:00;331
04.01.2023;07:00;07:15;361
04.01.2023;07:15;07:30;382
04.01.2023;07:30;07:45;396
04.01.2023;07:45;08:00;405
04.01.2023;08:00;08:15;411
04.01.2023;08:15;08:30;413
04.01.2023;08:30;08:45;413
04.01.2023;08:45;09:00;409
04.01.2023;09:00;09:15;402
04.01.2023;09:15;09:30;394
04.01.2023;09:30;09:45;386
04.01.2023;09:45;10:00;379
04.01.2023;10:00;10:15;374
04.01.2023;10:15;10:30;371
04.01.2023;10:30;10:45;370
04.01.2023;10:45;11:00;370
04.01.2023;11:00;11:15;372
04.01.2023;11:15;11:30;375
04.01.2023;11:30;11:45;380
04.01.2023;11:45;12:00;387
04.01.2023;12:00;12:15;397
04.01.2023;12:15;12:30;407
04.01.2023;12:30;12:45;415
04.01.2023;12:45;13:00;418
04.01.2023;13:00;13:15;415
04.01.2023;13:15;13:30;406
04.01.2023;13:30;13:45;394
04.01.2023;13:45;14:00;382
04.01.2023;14:00;14:15;380
04.01.2023;14:15;14:30;369
04.01.2023;14:30;14:45;353
04.01.2023;14:45;15:00;345
04.01.2023;15:00;15:15;338
04.01.2023;15:15;15:30;333
04.01.2023;15:30;15:45;328
04.01.2023;15:45;16:00;326
04.01.2023;16:00;16:15;326
04.01.2023;16:15;16:30;329
04.01.2023;16:30;16:45;335
04.01.2023;16:45;17:00;348
04.01.2023;17:00;17:15;365
04.01.2023;17:15;17:30;387
04.01.2023;17:30;17:45;412
04.01.2023;17:45;18:00;439
04.01.2023;18:00;18:15;465
04.01.2023;18:15;18:30;490
04.01.2023;18:30;18:45;512
04.01.2023;18:45;19:00;531
04.01.2023;19:00;19:15;545
04.01.2023;19:15;19:30;552
04.01.2023;19:30;19:45;553
04.01.2023;19:45;20:00;544
04.01.2023;20:00;20:15;527
04.01.2023;20:15;20:30;504
04.01.2023;20:30;20:45;479
04.01.2023;20:45;21:00;455
04.01.2023;21:00;21:15;436
04.01.2023;21:15;21:30;420
04.01.2023;21:30;21:45;416
04.01.2023;21:45;22:00;513
04.01.2023;22:00;22:15;517
04.01.2023;22:15;22:30;516
04.01.2023;22:30;22:45;488
04.01.2023;22:45;23:00;459
04.01.2023;23:00;23:15;430
04.01.2023;23:15;23:30;402
04.01.2023;23:30;23:45;375
05.01.2023;23:45;00:00;348
05.01.2023;00:00;00:15;324
05.01.2023;00:15;00:30;302
05.01.2023;00:30;00:45;281
05.01.2023;00:45;01:00;264
05.01.2023;01:00;01:15;252
05.01.2023;01:15;01:30;245
05.01.2023;01:30;01:45;237
05.01.2023;01:45;02:00;231
05.01.2023;02:00;02:15;216
05.01.2023;02:15;02:30;209
05.01.2023;02:30;02:45;203
05.01.2023;02:45;03:00;197
05.01.2023;03:00;03:15;197
05.01.2023;03:15;03:30;196
05.01.2023;03:30;03:45;196
05.01.2023;03:45;04:00;196
05.01.2023;04:00;04:15;197
05.01.2023;04:15;04:30;201
05.01.2023;04:30;04:45;205
05.01.2023;04:45;05:00;210
05.01.2023;05:00;05:15;215
05.01.2023;05:15;05:30;224
05.01.2023;05:30;05:45;239
05.01.2023;05:45;06:00;244
05.01.2023;06:00;06:15;208
05.01.2023;06:15;06:30;248
05.01.2023;06:30;06:45;292
05.01.2023;06:45;07:00;331
05.01.2023;07:00;07:15;361
05.01.2023;07:15;07:30;382
05.01.2023;07:30;07:45;397
05.01.2023;07:45;08:00;406
05.01.2023;08:00;08:15;411
05.01.2023;08:15;08:30;414
05.01.2023;08:30;08:45;413
05.01.2023;08:45;09:00;409
05.01.2023;09:00;09:15;403
05.01.2023;09:15;09:30;395
05.01.2023;09:30;09:45;386
05.01.2023;09:45;10:00;379
05.01.2023;10:00;10:15;374
05.01.2023;10:15;10:30;371
05.01.2023;10:30;10:45;370
05.01.2023;10:45;11:00;371
05.01.2023;11:00;11:15;372
05.01.2023;11:15;11:30;375
05.01.2023;11:30;11:45;380
05.01.2023;11:45;12:00;388
05.01.2023;12:00;12:15;398
05.01.2023;12:15;12:30;408
05.01.2023;12:30;12:45;416
05.01.2023;12:45;13:00;419
05.01.2023;13:00;13:15;415
05.01.2023;13:15;13:30;407
05.01.2023;13:30;13:45;395
05.01.2023;13:45;14:00;382
05.01.2023;14:00;14:15;380
05.01.2023;14:15;14:30;369
05.01.2023;14:30;14:45;353
05.01.2023;14:45;15:00;345
05.01.2023;15:00;15:15;339
05.01.2023;15:15;15:30;333
05.01.2023;15:30;15:45;328
05.01.2023;15:45;16:00;326
05.01.2023;16:00;16:15;326
05.01.2023;16:15;16:30;329
05.01.2023;16:30;16:45;336
05.01.2023;16:45;17:00;348
05.01.2023;17:00;17:15;366
05.01.2023;17:15;17:30;388
05.01.2023;17:30;17:45;413
05.01.2023;17:45;18:00;439
05.01.2023;18:00;18:15;466
05.01.2023;18:15;18:30;491
05.01.2023;18:30;18:45;513
05.01.2023;18:45;19:00;532
05.01.2023;19:00;19:15;545
05.01.2023;19:15;19:30;553
05.01.2023;19:30;19:45;553
05.01.2023;19:45;20:00;545
05.01.2023;20:00;20:15;528
05.01.2023;20:15;20:30;505
05.01.2023;20:30;20:45;480
05.01.2023;20:45;21:00;456
05.01.2023;21:00;21:15;436
05.01.2023;21:15;21:30;420
05.01.2023;21:30;21:45;417
05.01.2023;21:45;22:00;514
05.01.2023;22:00;22:15;518
05.01.2023;22:15;22:30;516
05.01.2023;22:30;22:45;488
05.01.2023;22:45;23:00;459
05.01.2023;23:00;23:15;430
05.01.2023;23:15;23:30;403
05.01.2023;23:30;23:45;376
06.01.2023;23:45;00:00;349
06.01.2023;00:00;00:15;325
06.01.2023;00:15;00:30;302
06.01.2023;00:30;00:45;281
06.01.2023;00:45;01:00;264
06.01.2023;01:00;01:15;253
06.01.2023;01:15;01:30;245
06.01.2023;01:30;01:45;237
06.01.2023;01:45;02:00;231
06.01.2023;02:00;02:15;216
06.01.2023;02:15;02:30;209
06.01.2023;02:30;02:45;203
06.01.2023;02:45;03:00;197
06.01.2023;03:00;03:15;197
06.01.2023;03:15;03:30;196
06.01.2023;03:30;03:45;196
06.01.2023;03:45;04:00;196
06.01.2023;04:00;04:15;197
06.01.2023;04:15;04:30;201
06.01.2023;04:30;04:45;206
06.01.2023;04:45;05:00;210
06.01.2023;05:00;05:15;215
06.01.2023;05:15;05:30;224
06.01.2023;05:30;05:45;239
06.01.2023;05:45;06:00;244
06.01.2023;06:00;06:15;208
06.01.2023;06:15;06:30;248
06.01.2023;06:30;06:45;292
06.01.2023;06:45;07:00;332
06.01.2023;07:00;07:15;361
06.01.2023;07:15;07:30;383
06.01.2023;07:30;07:45;397
06.01.2023;07:45;08:00;406
06.01.2023;08:00;08:15;412
06.01.2023;08:15;08:30;414
06.01.2023;08:30;08:45;414
06.01.2023;08:45;09:00;410
06.01.2023;09:00;09:15;403
06.01.2023;09:15;09:30;395
06.01.2023;09:30;09:45;386
06.01.2023;09:45;10:00;379
06.01.2023;10:00;10:15;375
06.01.2023;10:15;10:30;372
06.01.2023;10:30;10:45;371
06.01.2023;10:45;11:00;371
06.01.2023;11:00;11:15;373
06.01.2023;11:15;11:30;376
06.01.2023;11:30;11:45;380
06.01.2023;11:45;12:00;388
06.01.2023;12:00;12:15;398
06.01.2023;12:15;12:30;408
06.01.2023;12:30;12:45;416
06.01.2023;12:45;13:00;419
06.01.2023;13:00;13:15;416
06.01.2023;13:15;13:30;407
06.01.2023;13:30;13:45;395
06.01.2023;13:45;14:00;383
06.01.2023;14:00;14:15;381
06.01.2023;14:15;14:30;369
06.01.2023;14:30;14:45;354
06.01.2023;14:45;15:00;346
06.01.2023;15:00;15:15;339
06.01.2023;15:15;15:30;333
06.01.2023;15:30;15:45;329
06.01.2023;15:45;16:00;326
06.01.2023;16:00;16:15;326
06.01.2023;16:15;16:30;329
06.01.2023;16:30;16:45;336
06.01.2023;16:45;17:00;348
06.01.2023;17:00;17:15;366
06.01.2023;17:15;17:30;388
06.01.2023;17:30;17:45;413
06.01.2023;17:45;18:00;440
06.01.2023;18:00;18:15;466
06.01.2023;18:15;18:30;491
06.01.2023;18:30;18:45;513
06.01.2023;18:45;19:00;532
06.01.2023;19:00;19:15;546
06.01.2023;19:15;19:30;554
06.01.2023;19:30;19:45;554
06.01.2023;19:45;20:00;546
06.01.2023;20:00;20:15;529
06.01.2023;20:15;20:30;505
06.01.2023;20:30;20:45;480
06.01.2023;20:45;21:00;456
06.01.2023;21:00;21:15;437
06.01.2023;21:15;21:30;421
06.01.2023;21:30;21:45;417
06.01.2023;21:45;22:00;514
06.01.2023;22:00;22:15;518
06.01.2023;22:15;22:30;517
06.01.2023;22:30;22:45;489
06.01.2023;22:45;23:00;460
06.01.2023;23:00;23:15;430
06.01.2023;23:15;23:30;403
06.01.2023;23:30;23:45;376
07.01.2023;23:45;00:00;349
07.01.2023;00:00;00:15;335
07.01.2023;00:15;00:30;325
07.01.2023;00:30;00:45;316
07.01.2023;00:45;01:00;306
07.01.2023;01:00;01:15;295
07.01.2023;01:15;01:30;282
07.01.2023;01:30;01:45;266
07.01.2023;01:45;02:00;251
07.01.2023;02:00;02:15;230
07.01.2023;02:15;02:30;220
07.01.2023;02:30;02:45;212
07.01.2023;02:45;03:00;205
07.01.2023;03:00;03:15;204
07.01.2023;03:15;03:30;203
07.01.2023;03:30;03:45;202
07.01.2023;03:45;04:00;201
07.01.2023;04:00;04:15;200
07.01.2023;04:15;04:30;202
07.01.2023;04:30;04:45;204
07.01.2023;04:45;05:00;206
07.01.2023;05:00;05:15;209
07.01.2023;05:15;05:30;214
07.01.2023;05:30;05:45;220
07.01.2023;05:45;06:00;207
07.01.2023;06:00;06:15;145
07.01.2023;06:15;06:30;155
07.01.2023;06:30;06:45;172
07.01.2023;06:45;07:00;191
07.01.2023;07:00;07:15;213
07.01.2023;07:15;07:30;239
07.01.2023;07:30;07:45;267
07.01.2023;07:45;08:00;297
07.01.2023;08:00;08:15;328
07.01.2023;08:15;08:30;358
07.01.2023;08:30;08:45;386
07.01.2023;08:45;09:00;408
07.01.2023;09:00;09:15;424
07.01.2023;09:15;09:30;435
07.01.2023;09:30;09:45;442
07.01.2023;09:45;10:00;446
07.01.2023;10:00;10:15;450
07.01.2023;10:15;10:30;454
07.01.2023;10:30;10:45;458
07.01.2023;10:45;11:00;462
07.01.2023;11:00;11:15;467
07.01.2023;11:15;11:30;473
07.01.2023;11:30;11:45;480
07.01.2023;11:45;12:00;488
07.01.2023;12:00;12:15;497
07.01.2023;12:15;12:30;506
07.01.2023;12:30;12:45;513
07.01.2023;12:45;13:00;516
07.01.2023;13:00;13:15;513
07.01.2023;13:15;13:30;507
07.01.2023;13:30;13:45;497
07.01.2023;13:45;14:00;486
07.01.2023;14:00;14:15;484
07.01.2023;14:15;14:30;470
07.01.2023;14:30;14:45;452
07.01.2023;14:45;15:00;442
07.01.2023;15:00;15:15;433
07.01.2023;15:15;15:30;426
07.01.2023;15:30;15:45;420
07.01.2023;15:45;16:00;416
07.01.2023;16:00;16:15;414
07.01.2023;16:15;16:30;416
07.01.2023;16:30;16:45;425
07.01.2023;16:45;17:00;443
07.01.2023;17:00;17:15;473
07.01.2023;17:15;17:30;510
07.01.2023;17:30;17:45;547
07.01.2023;17:45;18:00;578
07.01.2023;18:00;18:15;598
07.01.2023;18:15;18:30;609
07.01.2023;18:30;18:45;614
07.01.2023;18:45;19:00;617
07.01.2023;19:00;19:15;620
07.01.2023;19:15;19:30;620
07.01.2023;19:30;19:45;612
07.01.2023;19:45;20:00;594
07.01.2023;20:00;20:15;563
07.01.2023;20:15;20:30;523
07.01.2023;20:30;20:45;482
07.01.2023;20:45;21:00;445
07.01.2023;21:00;21:15;417
07.01.2023;21:15;21:30;398
07.01.2023;21:30;21:45;397
07.01.2023;21:45;22:00;501
07.01.2023;22:00;22:15;516
07.01.2023;22:15;22:30;528
07.01.2023;22:30;22:45;513
07.01.2023;22:45;23:00;495
07.01.2023;23:00;23:15;474
07.01.2023;23:15;23:30;451
07.01.2023;23:30;23:45;427
08.01.2023;23:45;00:00;403
08.01.2023;00:00;00:15;381
08.01.2023;00:15;00:30;359
08.01.2023;00:30;00:45;338
08.01.2023;00:45;01:00;318
08.01.2023;01:00;01:15;302
08.01.2023;01:15;01:30;287
08.01.2023;01:30;01:45;271
08.01.2023;01:45;02:00;257
08.01.2023;02:00;02:15;236
08.01.2023;02:15;02:30;225
08.01.2023;02:30;02:45;216
08.01.2023;02:45;03:00;208
08.01.2023;03:00;03:15;206
08.01.2023;03:15;03:30;203
08.01.2023;03:30;03:45;201
08.01.2023;03:45;04:00;199
08.01.2023;04:00;04:15;197
08.01.2023;04:15;04:30;198
08.01.2023;04:30;04:45;200
08.01.2023;04:45;05:00;202
08.01.2023;05:00;05:15;204
08.01.2023;05:15;05:30;207
08.01.2023;05:30;05:45;210
08.01.2023;05:45;06:00;193
08.01.2023;06:00;06:15;124
08.01.2023;06:15;06:30;123
08.01.2023;06:30;06:45;126
08.01.2023;06:45;07:00;130
08.01.2023;07:00;07:15;134
08.01.2023;07:15;07:30;141
08.01.2023;07:30;07:45;154
08.01.2023;07:45;08:00;174
08.01.2023;08:00;08:15;203
08.01.2023;08:15;08:30;239
08.01.2023;08:30;08:45;278
08.01.2023;08:45;09:00;317
08.01.2023;09:00;09:15;354
08.01.2023;09:15;09:30;388
08.01.2023;09:30;09:45;419
08.01.2023;09:45;10:00;446
08.01.2023;10:00;10:15;471
08.01.2023;10:15;10:30;494
08.01.2023;10:30;10:45;516
08.01.2023;10:45;11:00;538
08.01.2023;11:00;11:15;560
08.01.2023;11:15;11:30;580
08.01.2023;11:30;11:45;598
08.01.2023;11:45;12:00;609
08.01.2023;12:00;12:15;613
08.01.2023;12:15;12:30;609
08.01.2023;12:30;12:45;597
08.01.2023;12:45;13:00;577
08.01.2023;13:00;13:15;551
08.01.2023;13:15;13:30;520
08.01.2023;13:30;13:45;488
08.01.2023;13:45;14:00;457
08.01.2023;14:00;14:15;439
08.01.2023;14:15;14:30;414
08.01.2023;14:30;14:45;387
08.01.2023;14:45;15:00;371
08.01.2023;15:00;15:15;358
08.01.2023;15:15;15:30;346
08.01.2023;15:30;15:45;337
08.01.2023;15:45;16:00;327
08.01.2023;16:00;16:15;318
08.01.2023;16:15;16:30;311
08.01.2023;16:30;16:45;309
08.01.2023;16:45;17:00;316
08.01.2023;17:00;17:15;332
08.01.2023;17:15;17:30;356
08.01.2023;17:30;17:45;383
08.01.2023;17:45;18:00;409
08.01.2023;18:00;18:15;432
08.01.2023;18:15;18:30;451
08.01.2023;18:30;18:45;469
08.01.2023;18:45;19:00;485
08.01.2023;19:00;19:15;502
08.01.2023;19:15;19:30;516
08.01.2023;19:30;19:45;524
08.01.2023;19:45;20:00;521
08.01.2023;20:00;20:15;506
08.01.2023;20:15;20:30;483
08.01.2023;20:30;20:45;456
08.01.2023;20:45;21:00;432
08.01.2023;21:00;21:15;415
08.01.2023;21:15;21:30;403
08.01.2023;21:30;21:45;404
08.01.2023;21:45;22:00;504
08.01.2023;22:00;22:15;511
08.01.2023;22:15;22:30;511
08.01.2023;22:30;22:45;483
08.01.2023;22:45;23:00;454
08.01.2023;23:00;23:15;424
08.01.2023;23:15;23:30;397
08.01.2023;23:30;23:45;369
09.01.2023;23:45;00:00;343
09.01.2023;00:00;00:15;345
09.01.2023;00:15;00:30;319
09.01.2023;00:30;00:45;296
09.01.2023;00:45;01:00;275
09.01.2023;01:00;01:15;262
09.01.2023;01:15;01:30;250
09.01.2023;01:30;01:45;241
09.01.2023;01:45;02:00;235
09.01.2023;02:00;02:15;227
09.01.2023;02:15;02:30;222
09.01.2023;02:30;02:45;218
09.01.2023;02:45;03:00;213
09.01.2023;03:00;03:15;209
09.01.2023;03:15;03:30;209
09.01.2023;03:30;03:45;208
09.01.2023;03:45;04:00;209
09.01.2023;04:00;04:15;210
09.01.2023;04:15;04:30;212
09.01.2023;04:30;04:45;214
09.01.2023;04:45;05:00;217
09.01.2023;05:00;05:15;220
09.01.2023;05:15;05:30;229
09.01.2023;05:30;05:45;245
09.01.2023;05:45;06:00;250
09.01.2023;06:00;06:15;208
09.01.2023;06:15;06:30;249
09.01.2023;06:30;06:45;293
09.01.2023;06:45;07:00;332
09.01.2023;07:00;07:15;362
09.01.2023;07:15;07:30;384
09.01.2023;07:30;07:45;398
09.01.2023;07:45;08:00;407
09.01.2023;08:00;08:15;413
09.01.2023;08:15;08:30;415
09.01.2023;08:30;08:45;414
09.01.2023;08:45;09:00;411
09.01.2023;09:00;09:15;404
09.01.2023;09:15;09:30;396
09.01.2023;09:30;09:45;387
09.01.2023;09:45;10:00;380
09.01.2023;10:00;10:15;375
09.01.2023;10:15;10:30;373
09.01.2023;10:30;10:45;371
09.01.2023;10:45;11:00;372
09.01.2023;11:00;11:15;374
09.01.2023;11:15;11:30;376
09.01.2023;11:30;11:45;381
09.01.2023;11:45;12:00;389
09.01.2023;12:00;12:15;399
09.01.2023;12:15;12:30;409
09.01.2023;12:30;12:45;417
09.01.2023;12:45;13:00;420
09.01.2023;13:00;13:15;417
09.01.2023;13:15;13:30;408
09.01.2023;13:30;13:45;396
09.01.2023;13:45;14:00;384
09.01.2023;14:00;14:15;382
09.01.2023;14:15;14:30;372
09.01.2023;14:30;14:45;364
09.01.2023;14:45;15:00;353
09.01.2023;15:00;15:15;341
09.01.2023;15:15;15:30;335
09.01.2023;15:30;15:45;330
09.01.2023;15:45;16:00;327
09.01.2023;16:00;16:15;327
09.01.2023;16:15;16:30;330
09.01.2023;16:30;16:45;337
09.01.2023;16:45;17:00;349
09.01.2023;17:00;17:15;367
09.01.2023;17:15;17:30;389
09.01.2023;17:30;17:45;414
09.01.2023;17:45;18:00;441
09.01.2023;18:00;18:15;467
09.01.2023;18:15;18:30;492
09.01.2023;18:30;18:45;515
09.01.2023;18:45;19:00;533
09.01.2023;19:00;19:15;547